CW1419 Weather Reports


time (UTC)temp
F
wind
direction
speed
knots
gust
knots
rain 1hr
in
rain 24hr
in
rain mn
in
humidity
%
barometer
mb
20260906131003 67 65 0.9 3.5 0.00 0.00 0.00 90 1019.9
20260906130503 66 134 1.7 3.5 0.00 0.00 0.00 91 1019.8
20260906130010 66 148 0.9 3.5 0.00 0.00 0.00 92 1019.8
20260906125504 66 79 0.9 5.2 0.00 0.00 0.00 93 1019.7
20260906125004 65 88 0.9 5.2 0.00 0.00 0.00 93 1019.4
20260906124511 65 98 0.9 5.2 0.00 0.00 0.00 94 1019.3
20260906124010 65 103 1.7 5.2 0.00 0.00 0.00 93 1019.3
20260906123507 65 84 2.6 5.2 0.00 0.00 0.00 94 1019.3
20260906123028 64 113 1.7 3.5 0.00 0.00 0.00 94 1019.2
20260906122507 64 100 1.7 3.5 0.00 0.00 0.00 94 1019.3
20260906122009 64 97 0.9 3.5 0.00 0.00 0.00 94 1019.3
20260906121530 64 69 0.9 3.5 0.00 0.00 0.00 94 1019.3
20260906121014 64 91 0.9 3.5 0.00 0.00 0.00 94 1019.3
20260906120507 63 89 1.7 3.5 0.00 0.00 0.00 94 1019.2
20260906120014 63 88 0.9 3.5 0.00 0.00 0.00 94 1019.1
20260906115506 63 82 0.9 3.5 0.00 0.00 0.00 94 1019.0
20260906115007 63 84 1.7 3.5 0.00 0.00 0.00 94 1018.8
20260906114524 63 79 1.7 3.5 0.00 0.00 0.00 94 1018.7
20260906114010 63 78 0.9 3.5 0.00 0.00 0.00 94 1018.6
20260906113514 63 99 1.7 3.5 0.00 0.00 0.00 94 1018.7
20260906113019 63 103 1.7 3.5 0.00 0.00 0.00 93 1018.6
20260906112511 63 83 1.7 3.5 0.00 0.00 0.00 93 1018.5
20260906112015 63 86 1.7 5.2 0.00 0.00 0.00 93 1018.5
20260906111521 63 82 1.7 5.2 0.00 0.00 0.00 93 1018.4
20260906111008 63 93 1.7 5.2 0.00 0.00 0.00 93 1018.4
20260906110515 63 88 2.6 5.2 0.00 0.00 0.00 93 1018.3
20260906110031 63 100 2.6 5.2 0.00 0.00 0.00 93 1018.3
20260906105507 63 101 2.6 5.2 0.00 0.00 0.00 93 1018.3
20260906105010 63 102 2.6 6.1 0.00 0.00 0.00 93 1018.4
20260906104519 63 89 1.7 6.1 0.00 0.00 0.00 93 1018.3
20260906104009 63 98 2.6 6.1 0.00 0.00 0.00 93 1018.2
20260906103511 63 101 2.6 5.2 0.00 0.00 0.00 93 1018.2
20260906103024 63 97 2.6 5.2 0.00 0.00 0.00 93 1018.3
20260906102503 63 93 1.7 5.2 0.00 0.00 0.00 93 1018.4
20260906102001 63 86 1.7 3.5 0.00 0.00 0.00 92 1018.4
20260906101504 64 77 2.6 3.5 0.00 0.00 0.00 92 1018.4
20260906101004 64 86 1.7 3.5 0.00 0.00 0.00 92 1018.2
20260906100504 64 93 1.7 3.5 0.00 0.00 0.00 92 1018.2
20260906100004 64 77 1.7 3.5 0.00 0.00 0.00 92 1018.2
20260906095502 64 96 1.7 3.5 0.00 0.00 0.00 92 1018.1
20260906095006 64 86 1.7 3.5 0.00 0.00 0.00 92 1018.2
20260906094504 64 62 0.9 3.5 0.00 0.00 0.00 92 1018.3
20260906094002 64 61 1.7 4.3 0.00 0.00 0.00 92 1018.3
20260906093501 64 72 1.7 4.3 0.00 0.00 0.00 92 1018.2
20260906093009 64 59 2.6 4.3 0.00 0.00 0.00 91 1018.1
20260906092505 64 76 1.7 3.5 0.00 0.00 0.00 91 1017.9
20260906092003 64 69 1.7 3.5 0.00 0.00 0.00 91 1017.9
20260906091504 65 89 1.7 2.6 0.00 0.00 0.00 91 1017.9
20260906091003 65 68 0.0 2.6 0.00 0.00 0.00 91 1017.9
20260906090505 65 68 1.7 2.6 0.00 0.00 0.00 91 1017.9
20260906090009 65 68 0.9 3.5 0.00 0.00 0.00 91 1018.0
20260906085504 65 68 0.9 3.5 0.00 0.00 0.00 91 1018.1
20260906085002 65 37 0.9 3.5 0.00 0.00 0.00 91 1018.1
20260906084509 65 10 0.9 3.5 0.00 0.00 0.00 91 1018.0
20260906084007 65 31 1.7 3.5 0.00 0.00 0.00 91 1018.0
20260906083502 65 5 1.7 3.5 0.00 0.00 0.00 91 1018.0
20260906083004 65 49 1.7 3.5 0.00 0.00 0.00 91 1018.0
20260906082505 65 70 0.9 2.6 0.00 0.00 0.00 91 1018.0
20260906082003 65 70 1.7 2.6 0.00 0.00 0.00 91 1017.9
20260906081503 65 76 0.9 2.6 0.00 0.00 0.00 91 1017.9
20260906081003 65 61 0.9 2.6 0.00 0.00 0.00 91 1017.9
20260906080504 65 352 0.9 2.6 0.00 0.00 0.00 91 1018.0
20260906080004 64 352 0.9 2.6 0.00 0.00 0.00 91 1018.0
20260906075502 64 352 0.9 2.6 0.00 0.00 0.00 91 1018.0
20260906075004 64 352 0.9 3.5 0.00 0.00 0.00 91 1018.0
20260906074506 64 352 0.9 3.5 0.00 0.00 0.00 92 1018.0
20260906074003 64 345 1.7 3.5 0.00 0.00 0.00 92 1018.0
20260906073504 64 329 1.7 3.5 0.00 0.00 0.00 91 1018.0
20260906073004 64 320 1.7 3.5 0.00 0.00 0.00 91 1018.0
20260906072507 64 333 1.7 3.5 0.00 0.00 0.00 91 1018.0
20260906072001 64 352 1.7 3.5 0.00 0.00 0.00 92 1017.9
20260906071503 64 5 1.7 3.5 0.00 0.00 0.00 92 1017.9
20260906071004 64 5 1.7 3.5 0.00 0.00 0.00 92 1017.9
20260906070506 64 5 1.7 3.5 0.00 0.00 0.00 92 1017.9
20260906070003 64 5 0.9 2.6 0.00 0.00 0.00 92 1017.9
20260906065503 64 5 1.7 2.6 0.00 0.00 0.00 91 1018.0
20260906065002 64 5 0.9 2.6 0.00 0.00 0.00 91 1017.9
20260906064503 64 5 1.7 2.6 0.00 0.00 0.00 91 1018.0
20260906064003 64 5 0.9 2.6 0.00 0.00 0.00 91 1018.1
20260906063505 64 5 1.7 2.6 0.00 0.00 0.00 91 1018.1
20260906063012 64 12 0.9 3.5 0.00 0.00 0.00 92 1018.1
20260906062503 64 12 0.9 3.5 0.00 0.00 0.00 92 1018.1
20260906062006 64 12 1.7 3.5 0.00 0.00 0.00 92 1018.1
20260906061508 64 5 0.9 3.5 0.00 0.00 0.00 92 1018.0
20260906061006 64 342 0.9 3.5 0.00 0.00 0.00 92 1018.0
20260906060506 64 352 0.9 3.5 0.00 0.00 0.00 92 1018.0
20260906060004 64 346 1.7 3.5 0.00 0.00 0.00 91 1017.9
20260906055503 64 351 1.7 3.5 0.00 0.00 0.00 91 1018.0
20260906055003 64 14 1.7 3.5 0.00 0.00 0.00 91 1017.9
20260906054504 64 14 1.7 3.5 0.00 0.00 0.00 91 1017.8
20260906054003 64 23 0.9 3.5 0.00 0.00 0.00 91 1017.8
20260906053503 64 36 0.9 3.5 0.00 0.00 0.00 91 1017.9
20260906053016 64 38 1.7 3.5 0.00 0.00 0.00 91 1017.9
20260906052503 65 72 1.7 3.5 0.00 0.00 0.00 91 1017.8
20260906052003 65 93 2.6 3.5 0.00 0.00 0.00 91 1017.9
20260906051512 65 75 1.7 2.6 0.00 0.00 0.00 91 1017.9
20260906051003 65 75 0.9 2.6 0.00 0.00 0.00 91 1017.8
20260906050503 65 75 0.9 3.5 0.00 0.00 0.00 91 1017.7
20260906050013 65 75 0.9 3.5 0.00 0.00 0.00 90 1017.7
20260906045502 65 61 1.7 4.3 0.00 0.00 0.00 90 1017.7
20260906045005 65 74 1.7 5.2 0.00 0.00 0.00 90 1017.7
20260906044512 65 82 2.6 7.0 0.00 0.00 0.00 90 1017.7
20260906044004 65 74 2.6 7.0 0.00 0.00 0.00 90 1017.7
20260906043503 65 69 2.6 6.1 0.00 0.00 0.00 90 1017.7
20260906043012 65 75 2.6 6.1 0.00 0.00 0.00 90 1017.6
20260906042503 65 76 2.6 6.1 0.00 0.00 0.00 90 1017.5
20260906042003 65 49 3.5 6.1 0.00 0.00 0.00 89 1017.5
20260906041512 65 69 2.6 6.1 0.00 0.00 0.00 89 1017.5
20260906041005 65 101 2.6 7.8 0.00 0.00 0.00 89 1017.5
20260906040503 65 83 2.6 7.8 0.00 0.00 0.00 89 1017.4
20260906040006 65 88 2.6 6.1 0.00 0.00 0.00 88 1017.5
20260906035503 66 65 2.6 7.0 0.00 0.00 0.00 88 1017.5
20260906035003 66 61 2.6 7.0 0.00 0.00 0.00 88 1017.6
20260906034521 66 81 2.6 7.0 0.00 0.00 0.00 87 1017.6
20260906034007 66 65 2.6 7.0 0.00 0.00 0.00 87 1017.5
20260906033504 66 76 2.6 6.1 0.00 0.00 0.00 86 1017.6
20260906033017 66 86 2.6 6.1 0.00 0.00 0.00 86 1017.6
20260906032505 66 88 2.6 8.7 0.00 0.00 0.00 85 1017.5
20260906032004 66 100 3.5 8.7 0.00 0.00 0.00 85 1017.5
20260906031512 66 88 4.3 8.7 0.00 0.00 0.00 84 1017.5
20260906031004 66 111 3.5 9.6 0.00 0.00 0.00 84 1017.4
20260906030504 66 100 4.3 11.3 0.00 0.00 0.00 84 1017.3
20260906030011 66 84 3.5 11.3 0.00 0.00 0.00 84 1017.4
20260906025505 67 107 4.3 10.4 0.00 0.00 0.00 85 1017.5
20260906025003 67 84 4.3 10.4 0.00 0.00 0.00 86 1017.6
20260906024517 67 112 3.5 7.8 0.00 0.00 0.00 86 1017.6
20260906024007 67 88 5.2 8.7 0.00 0.00 0.00 87 1017.5
20260906023502 67 76 4.3 10.4 0.00 0.00 0.00 87 1017.3
20260906023012 67 84 4.3 10.4 0.00 0.00 0.00 87 1017.3
20260906022503 67 92 6.1 9.6 0.00 0.00 0.00 88 1017.1
20260906022006 68 107 4.3 9.6 0.00 0.00 0.00 88 1017.1
20260906021516 68 40 4.3 9.6 0.00 0.00 0.00 88 1017.0
20260906021004 68 82 3.5 9.6 0.00 0.00 0.00 88 1017.0
20260906020504 68 53 5.2 9.6 0.00 0.00 0.00 88 1017.0
20260906020011 69 84 2.6 7.0 0.00 0.00 0.00 88 1017.1
20260906015505 69 117 2.6 6.1 0.00 0.00 0.00 87 1017.1
20260906015004 69 111 3.5 6.1 0.00 0.00 0.00 87 1017.1
20260906014520 69 92 2.6 7.8 0.00 0.00 0.00 86 1017.1
20260906014009 69 130 3.5 7.8 0.00 0.00 0.00 86 1017.0
20260906013508 69 82 3.5 7.8 0.00 0.00 0.00 87 1017.1
20260906013024 69 94 1.7 8.7 0.00 0.00 0.00 87 1017.1
20260906012503 69 89 2.6 9.6 0.00 0.00 0.00 88 1017.2
20260906012005 69 62 3.5 10.4 0.00 0.00 0.00 88 1017.2
20260906011506 69 49 2.6 10.4 0.00 0.00 0.00 89 1017.1
20260906011006 69 72 5.2 8.7 0.00 0.00 0.00 90 1017.1
20260906010504 69 59 3.5 7.8 0.00 0.00 0.00 90 1017.1
20260906010010 69 53 1.7 8.7 0.00 0.00 0.00 91 1017.1
20260906005504 69 81 2.6 8.7 0.00 0.00 0.00 91 1017.2
20260906005005 69 88 2.6 7.8 0.00 0.00 0.00 91 1017.1
20260906004511 69 102 3.5 7.8 0.00 0.00 0.00 90 1017.0
20260906004004 69 111 2.6 6.1 0.00 0.00 0.00 90 1016.9
20260906003506 69 76 1.7 6.1 0.00 0.00 0.00 90 1017.0
20260906003008 69 54 2.6 6.1 0.00 0.00 0.00 90 1017.1
20260906002504 69 86 2.6 7.0 0.00 0.00 0.00 90 1017.1
20260906002004 69 97 2.6 7.0 0.00 0.00 0.00 90 1017.1
20260906001512 69 105 2.6 7.0 0.00 0.00 0.00 90 1017.1
20260906001003 69 98 1.7 7.0 0.00 0.00 0.00 89 1017.0
20260906000503 69 94 4.3 8.7 0.00 0.00 0.00 89 1016.9
20260906000010 69 97 3.5 8.7 0.00 0.00 0.00 89 1017.0
20260905235503 69 66 4.3 10.4 0.00 0.00 0.00 89 1017.0
20260905235008 69 97 3.5 10.4 0.00 0.00 0.00 89 1017.0
20260905234513 70 86 3.5 9.6 0.00 0.00 0.00 88 1017.0
20260905234006 70 94 6.1 9.6 0.00 0.00 0.00 88 1017.1
20260905233506 70 115 4.3 8.7 0.00 0.00 0.00 88 1017.0
20260905233009 70 108 3.5 8.7 0.00 0.00 0.00 88 1017.0
20260905232512 70 102 3.5 8.7 0.00 0.00 0.00 88 1017.0
20260905232007 70 53 5.2 10.4 0.00 0.00 0.00 88 1017.0
20260905231512 70 86 5.2 10.4 0.00 0.00 0.00 88 1017.0
20260905231006 70 80 3.5 10.4 0.00 0.00 0.00 88 1017.0
20260905230508 70 91 2.6 12.2 0.00 0.00 0.00 88 1017.0
20260905230012 71 103 4.3 12.2 0.00 0.00 0.00 88 1016.9
20260905225504 71 98 7.0 12.2 0.00 0.00 0.00 87 1016.9
20260905225005 71 115 2.6 11.3 0.00 0.00 0.00 87 1016.8
20260905224518 71 78 5.2 11.3 0.00 0.00 0.00 87 1016.8
20260905224006 71 94 1.7 8.7 0.00 0.00 0.00 87 1017.0
20260905223505 71 92 5.2 11.3 0.00 0.00 0.00 87 1016.8
20260905223011 71 90 4.3 11.3 0.00 0.00 0.00 87 1016.9
20260905222506 71 74 4.3 12.2 0.00 0.00 0.00 87 1016.8
20260905222005 72 59 3.5 12.2 0.00 0.00 0.00 86 1016.7
20260905221529 72 55 3.5 9.6 0.00 0.00 0.00 86 1016.6
20260905221006 72 76 4.3 11.3 0.00 0.00 0.00 86 1016.6
20260905220507 72 92 6.1 12.2 0.00 0.00 0.00 86 1016.5
20260905220013 73 69 5.2 12.2 0.00 0.00 0.00 85 1016.4
20260905215506 73 9 5.2 10.4 0.00 0.00 0.00 85 1016.3
20260905215006 73 82 1.7 9.6 0.00 0.00 0.00 85 1016.3
20260905214519 73 89 6.1 10.4 0.00 0.00 0.00 84 1016.2
20260905214011 73 74 3.5 10.4 0.00 0.00 0.00 84 1016.3
20260905213505 73 65 6.1 10.4 0.00 0.00 0.00 84 1016.3
20260905213015 74 54 6.1 10.4 0.00 0.00 0.00 83 1016.2
20260905212506 74 13 4.3 12.2 0.00 0.00 0.00 83 1016.2
20260905212010 74 65 4.3 12.2 0.00 0.00 0.00 83 1016.1
20260905211526 74 71 4.3 12.2 0.00 0.00 0.00 82 1016.1
20260905211010 75 94 7.0 13.9 0.00 0.00 0.00 80 1016.1
20260905210514 75 62 5.2 13.9 0.00 0.00 0.00 81 1016.2
20260905210029 75 126 6.1 13.0 0.00 0.00 0.00 81 1015.9
20260905205506 75 76 8.7 13.0 0.00 0.00 0.00 80 1015.9
20260905205012 75 100 5.2 13.9 0.00 0.00 0.00 81 1016.0
20260905204520 75 80 7.0 13.9 0.00 0.00 0.00 81 1016.1
20260905204013 75 26 5.2 13.9 0.00 0.00 0.00 82 1016.2
20260905203507 74 91 6.1 11.3 0.00 0.00 0.00 83 1016.2
20260905203015 74 70 5.2 10.4 0.00 0.00 0.00 83 1016.2
20260905202514 74 92 6.1 12.2 0.00 0.00 0.00 83 1016.2
20260905202008 74 85 1.7 13.0 0.00 0.00 0.00 84 1016.2
20260905201525 74 84 7.0 13.0 0.00 0.00 0.00 82 1016.1
20260905201009 75 90 7.8 13.0 0.00 0.00 0.00 81 1016.1
20260905200507 75 73 4.3 11.3 0.00 0.00 0.00 82 1016.1
20260905200020 74 103 4.3 12.2 0.00 0.00 0.00 83 1016.2
20260905195515 75 96 7.0 12.2 0.00 0.00 0.00 82 1016.2
20260905195013 74 53 5.2 12.2 0.00 0.00 0.00 83 1016.2
20260905194529 74 60 6.1 12.2 0.00 0.00 0.00 83 1016.2
20260905194012 75 112 4.3 12.2 0.00 0.00 0.00 83 1016.3
20260905193514 75 68 5.2 13.9 0.00 0.00 0.00 84 1016.2
20260905193027 74 76 7.8 13.9 0.00 0.00 0.00 85 1016.2
20260905192513 75 67 6.1 13.0 0.00 0.00 0.00 84 1016.1
20260905192001 75 86 7.0 13.0 0.00 0.00 0.00 83 1016.0
20260905191502 76 65 5.2 13.0 0.00 0.00 0.00 84 1016.0
20260905191001 76 64 4.3 10.4 0.00 0.00 0.00 80 1016.0
20260905190502 77 360 5.2 10.4 0.00 0.00 0.00 80 1016.1
20260905190004 77 42 3.5 9.6 0.00 0.00 0.00 80 1016.0
20260905185502 77 19 3.5 9.6 0.00 0.00 0.00 80 1016.1
20260905185004 77 326 2.6 8.7 0.00 0.00 0.00 80 1016.1
20260905184504 76 34 5.2 8.7 0.00 0.00 0.00 79 1016.1
20260905184004 76 61 3.5 7.8 0.00 0.00 0.00 80 1016.1
20260905183502 76 44 3.5 8.7 0.00 0.00 0.00 80 1016.0
20260905183004 76 337 3.5 8.7 0.00 0.00 0.00 79 1016.2
20260905182501 76 360 2.6 8.7 0.00 0.00 0.00 80 1016.2
20260905182002 76 115 2.6 9.6 0.00 0.00 0.00 79 1016.2
20260905181502 76 20 5.2 12.2 0.00 0.00 0.00 79 1016.1
20260905181004 76 22 4.3 12.2 0.00 0.00 0.00 79 1016.1
20260905180503 77 17 4.3 8.7 0.00 0.00 0.00 78 1016.2
20260905180004 77 96 2.6 11.3 0.00 0.00 0.00 81 1016.2
20260905175502 76 352 2.6 11.3 0.00 0.00 0.00 80 1016.3
20260905175002 76 12 3.5 11.3 0.00 0.00 0.00 81 1016.2
20260905174509 75 32 6.1 11.3 0.00 0.00 0.00 80 1016.2
20260905174003 75 334 6.1 9.6 0.00 0.00 0.00 81 1016.1
20260905173503 75 32 3.5 9.6 0.00 0.00 0.00 81 1016.2
20260905173011 75 10 4.3 9.6 0.00 0.00 0.00 82 1016.3
20260905172503 75 24 3.5 9.6 0.00 0.00 0.00 83 1016.3
20260905172003 75 40 6.1 9.6 0.00 0.00 0.00 82 1016.3
20260905171504 75 78 4.3 8.7 0.00 0.00 0.00 82 1016.2
20260905171002 75 53 3.5 8.7 0.00 0.00 0.00 83 1016.2
20260905170502 75 34 3.5 7.8 0.00 0.00 0.00 84 1016.2
20260905170005 75 66 1.7 7.0 0.00 0.00 0.00 84 1016.3
20260905165503 74 62 3.5 8.7 0.00 0.00 0.00 84 1016.3
20260905165003 75 49 2.6 8.7 0.00 0.00 0.00 84 1016.3
20260905164504 75 30 1.7 6.1 0.00 0.00 0.00 83 1016.4
20260905164002 75 74 0.9 6.1 0.00 0.00 0.00 83 1016.3
20260905163503 75 34 2.6 6.1 0.00 0.00 0.00 83 1016.4
20260905163004 74 347 1.7 6.1 0.00 0.00 0.00 85 1016.3
20260905162503 74 57 1.7 7.8 0.00 0.00 0.00 85 1016.2
20260905162002 74 55 3.5 7.8 0.00 0.00 0.00 84 1016.3
20260905161503 74 105 1.7 7.8 0.00 0.00 0.00 85 1016.3
20260905161004 74 82 3.5 8.7 0.00 0.00 0.00 85 1016.3
20260905160503 74 47 3.5 8.7 0.00 0.00 0.00 86 1016.4
20260905160004 74 36 4.3 7.8 0.00 0.00 0.00 86 1016.4
20260905155501 74 5 3.5 7.8 0.00 0.00 0.00 86 1016.3
20260905155002 74 29 2.6 7.8 0.00 0.00 0.00 86 1016.3
20260905154504 74 347 0.9 7.8 0.00 0.00 0.00 87 1016.3
20260905154003 74 61 0.9 7.0 0.00 0.00 0.00 87 1016.2
20260905153506 73 63 0.9 7.8 0.00 0.00 0.00 88 1016.3
20260905153004 73 40 4.3 8.7 0.00 0.00 0.00 88 1016.3
20260905152504 73 55 4.3 8.7 0.00 0.00 0.00 88 1016.3
20260905152005 73 36 1.7 7.8 0.00 0.00 0.00 89 1016.2
20260905151504 72 23 3.5 8.7 0.00 0.00 0.00 89 1016.2
20260905151005 72 12 3.5 8.7 0.00 0.00 0.00 89 1016.0
20260905150506 73 39 3.5 8.7 0.00 0.00 0.00 88 1016.0
20260905150007 73 80 1.7 8.7 0.00 0.00 0.00 90 1015.9
20260905145503 72 90 3.5 8.7 0.00 0.00 0.00 90 1015.9
20260905145004 72 41 3.5 9.6 0.00 0.00 0.00 92 1015.8
20260905144506 71 45 3.5 9.6 0.00 0.00 0.00 93 1015.8
20260905144004 70 43 3.5 8.7 0.00 0.00 0.00 93 1015.9
20260905143504 70 105 3.5 10.4 0.00 0.00 0.00 94 1015.7
20260905143006 70 57 3.5 10.4 0.00 0.00 0.00 94 1015.6
20260905142503 70 102 3.5 10.4 0.00 0.00 0.00 94 1015.5
20260905142003 70 78 3.5 10.4 0.00 0.00 0.00 94 1015.5
20260905141506 70 117 3.5 12.2 0.00 0.00 0.00 94 1015.4
20260905141003 70 44 7.0 12.2 0.00 0.00 0.00 94 1015.3
20260905140506 70 42 4.3 12.2 0.00 0.00 0.00 94 1015.4
20260905140008 70 46 6.1 12.2 0.00 0.00 0.00 95 1015.4
20260905135503 70 96 3.5 10.4 0.00 0.00 0.00 95 1015.4
20260905135003 70 91 4.3 8.7 0.00 0.00 0.00 95 1015.3
20260905134508 70 82 1.7 12.2 0.00 0.00 0.00 95 1015.3
20260905134003 70 82 3.5 12.2 0.00 0.00 0.00 95 1015.3
20260905133503 70 86 4.3 10.4 0.00 0.00 0.00 95 1015.3
20260905133013 70 67 4.3 9.6 0.00 0.00 0.00 95 1015.3
20260905132503 70 42 4.3 9.6 0.00 0.00 0.00 95 1015.4
20260905132004 70 89 4.3 9.6 0.00 0.00 0.00 95 1015.4
20260905131525 70 47 6.1 9.6 0.00 0.00 0.00 95 1015.5